Hoquiam, WA
on Thursday, February 28, 2013

Thursday
Previous Day Next Day
Daily Summary
 ActualAverageRecord
Temperature
Mean Temperature °F 45°F  
Max Temperature 50°F 51°F 70°F (1968)
Min Temperature 44°F 38°F 23°F (1971)
Degree Days
Heating Degree Days 18 20  
Month to date heating degree days 595 597  
Cooling Degree Days 0 0  
Month to date cooling degree days 0 0  
Year to date cooling degree days 0 0  
Moisture
Dew Point 46°F   
Average Humidity 96    
Maximum Humidity 100    
Minimum Humidity 92    
Precipitation
Precipitation 1.13 in 0.24 in 1.33 in (1967)
Month to date precipitation 5.62 7.21  
Year to date precipitation 13.00 17.54  
Wind
Wind Speed 11 mph   
Max Wind Speed 23 mph   
Max Gust Speed 29 mph   
Visibility 4 miles   
Events Rain   

Key: T is trace of precipitation, MM is missing value
Source: NWS Daily Summary
Time(PST)TemperatureDew PointHumidity Pressure Visibility Wind DirectionWind SpeedGust SpeedPrecipitationEvents Conditions
12:24 AM 44.6°F 42.8°F 93% 30.20 in 10.0 miles NE 9.2 mph - 0.01 in Rain Light Rain
12:32 AM 44.6°F 42.8°F 93% 30.20 in 10.0 miles NE 6.9 mph - 0.01 in Rain Light Rain
12:40 AM 44.6°F 42.8°F 93% 30.20 in 10.0 miles NE 9.2 mph - 0.01 in Rain Light Rain
12:53 AM 44.1°F 43.0°F 96% 30.21 in 10.0 miles NE 9.2 mph - 0.01 in Rain Light Rain
1:53 AM 44.1°F 43.0°F 96% 30.19 in 10.0 miles NE 9.2 mph - 0.02 in Rain Light Rain
2:01 AM 44.6°F 42.8°F 93% 30.18 in 10.0 miles NE 9.2 mph - 0.00 in Rain Light Rain
2:53 AM 45.0°F 43.0°F 93% 30.17 in 10.0 miles ENE 11.5 mph - 0.00 in   Overcast
3:50 AM 44.6°F 42.8°F 93% 30.16 in 5.0 miles NE 11.5 mph - N/A   Overcast
3:53 AM 44.1°F 43.0°F 96% 30.17 in 5.0 miles NE 13.8 mph - N/A   Overcast
4:53 AM 44.1°F 42.1°F 93% 30.16 in 5.0 miles NE 13.8 mph - 0.02 in Rain Light Rain
5:53 AM 44.6°F 42.8°F 93% 30.15 in 5.0 miles ENE 13.8 mph - N/A Rain Light Rain
6:53 AM 44.1°F 43.0°F 96% 30.17 in 4.0 miles ENE 12.7 mph - 0.04 in Rain Light Rain
7:20 AM 44.6°F 42.8°F 93% 30.17 in 4.0 miles ENE 9.2 mph - 0.03 in Rain Light Rain
7:53 AM 44.1°F 44.1°F 100% 30.18 in 3.0 miles ENE 6.9 mph - 0.10 in Rain Light Rain
8:14 AM 44.6°F 44.6°F 100% 30.17 in 3.0 miles ENE 9.2 mph - 0.03 in Rain Light Rain
8:53 AM 45.0°F 44.1°F 97% 30.19 in 3.0 miles ENE 6.9 mph - 0.09 in Rain Light Rain
8:58 AM 44.6°F 44.6°F 100% 30.18 in 2.5 miles ENE 8.1 mph - 0.01 in Rain Light Rain
9:12 AM 44.6°F 44.6°F 100% 30.19 in 3.0 miles ENE 9.2 mph - 0.03 in Rain Light Rain
9:24 AM 44.6°F 44.6°F 100% 30.18 in 2.5 miles ENE 8.1 mph - 0.07 in Rain Rain
9:31 AM 44.6°F 44.6°F 100% 30.19 in 2.5 miles ENE 5.8 mph - 0.08 in Rain Light Rain
9:53 AM 46.0°F 45.0°F 96% 30.21 in 1.8 miles NE 6.9 mph - 0.16 in Rain Rain
10:03 AM 46.4°F 44.6°F 93% 30.20 in 1.5 miles NE 6.9 mph - 0.05 in Rain Rain
10:53 AM 46.9°F 46.9°F 100% 30.22 in 1.8 miles ENE 4.6 mph - 0.24 in Rain Rain
11:09 AM 46.4°F 46.4°F 100% 30.21 in 1.8 miles NE 4.6 mph - 0.05 in Rain Rain
11:30 AM 48.2°F 48.2°F 100% 30.21 in 1.8 miles Calm Calm - 0.12 in Rain Light Rain
11:37 AM 48.2°F 48.2°F 100% 30.22 in 2.5 miles ENE 3.5 mph - 0.14 in Rain Light Rain
11:53 AM 48.9°F 48.0°F 97% 30.24 in 2.0 miles Calm Calm - 0.17 in Rain Light Rain
12:04 PM 48.2°F 48.2°F 100% 30.22 in 5.0 miles South 4.6 mph - 0.01 in Rain Light Rain
12:53 PM 48.9°F 48.0°F 97% 30.24 in 6.0 miles South 9.2 mph - 0.02 in Rain Light Rain
1:04 PM 48.2°F 48.2°F 100% 30.22 in 4.0 miles South 9.2 mph - 0.00 in   Overcast
1:44 PM 48.2°F 48.2°F 100% 30.23 in 2.0 miles South 13.8 mph - 0.02 in Rain Rain
1:53 PM 48.9°F 48.0°F 97% 30.25 in 4.0 miles SSW 11.5 mph - 0.04 in Rain Light Rain
2:17 PM 50.0°F 48.2°F 94% 30.25 in 3.0 miles South 17.3 mph - 0.02 in Rain Light Rain
2:41 PM 50.0°F 48.2°F 94% 30.25 in 2.5 miles South 16.1 mph - 0.04 in Rain Rain
2:53 PM 48.9°F 48.0°F 97% 30.27 in 2.5 miles South 12.7 mph - 0.06 in Rain Light Rain
3:04 PM 48.2°F 48.2°F 100% 30.26 in 5.0 miles South 15.0 mph - 0.01 in Rain Light Rain
3:53 PM 48.9°F 48.0°F 97% 30.28 in 2.0 miles South 13.8 mph - 0.03 in Rain Light Rain
4:18 PM 48.2°F 48.2°F 100% 30.26 in 4.0 miles SSE 11.5 mph - 0.00 in   Overcast
4:50 PM 48.2°F 48.2°F 100% 30.28 in 2.5 miles South 10.4 mph - 0.00 in   Overcast
4:53 PM 48.9°F 48.0°F 97% 30.29 in 2.0 miles South 11.5 mph - 0.00 in   Overcast
5:04 PM 48.2°F 48.2°F 100% 30.27 in 1.8 miles SSE 11.5 mph - N/A   Overcast
5:53 PM 48.9°F 48.0°F 97% 30.30 in 2.0 miles South 10.4 mph - N/A   Overcast
6:24 PM 48.2°F 48.2°F 100% 30.29 in 3.0 miles South 11.5 mph - N/A   Overcast
6:53 PM 48.9°F 48.0°F 97% 30.32 in 4.0 miles South 11.5 mph - N/A   Overcast
7:34 PM 48.2°F 48.2°F 100% 30.31 in 2.0 miles South 11.5 mph - N/A   Overcast
7:53 PM 48.9°F 48.0°F 97% 30.32 in 5.0 miles South 12.7 mph - N/A   Overcast
8:23 PM 48.2°F 48.2°F 100% 30.32 in 2.5 miles South 12.7 mph - N/A   Overcast
8:45 PM 48.2°F 48.2°F 100% 30.32 in 3.0 miles South 11.5 mph - N/A   Overcast
8:53 PM 48.9°F 48.0°F 97% 30.33 in 3.0 miles South 11.5 mph - N/A   Overcast
9:53 PM 50.0°F 48.0°F 93% 30.32 in 5.0 miles South 15.0 mph - 0.01 in   Overcast
10:41 PM 50.0°F 48.2°F 94% 30.32 in 7.0 miles South 19.6 mph - 0.03 in Rain Light Rain
10:53 PM 50.0°F 48.0°F 93% 30.34 in 8.0 miles South 19.6 mph - 0.05 in Rain Light Rain
11:17 PM 50.0°F 48.2°F 94% 30.33 in 10.0 miles South 18.4 mph - 0.03 in Rain Light Rain
11:53 PM 50.0°F 48.2°F 94% 30.34 in 10.0 miles South 19.6 mph - N/A   Overcast
Moon Phase
Feb. 28 Mar. 04 Mar. 11 Mar. 19 Mar. 27
Sunrise:06:56 AM (PST) Moon Rise:09:51 PM (PST)2/28
Sunset:06:00 PM (PST) Moon Set:07:54 AM (PST)2/28

Copyright © 2014 The Weather Underground, Inc.